CZ-6A DEB, 54557

Orbit data source: Space-Track

CZ-6A DEB, 54557 is space debris in SSO originally from a launch on Fri, 11 Nov 2022 UTC launched from the Taiyaun Space Center, China (TSC). Debris objects in space refer to the collection of defunct objects orbiting the Earth. Examples of debris include non-operational satellites, rocket bodies, and fragments generated from explosions, collisions, or faulty payload assembly.

Loading next visibility...
Identifier
54557, 2022-151LH
Orbit
SSO
Country
Flag of CNCN / PRC
Related business
Manufacturer
SAST
Mission
Spacecraft
Bus & Motor
Unknown
Mass
Unknown
Launch date (UTC)
2022-11-11 (4 years ago)
Launch vehicle
Unknown
Launch site
Taiyaun Space Center, China (TSC)
Object type
Payload
Rocket body
Debris
Shape & HBR
Unknown shape, 0.3 m
Radar Cross Section
Medium (>0.1 m² and <1 m²)

Expand to show TLE details & history
Last TLE update: 2 days ago

TLE from 2 days ago
0 CZ-6A DEB
1 54557U 22151LH  26171.38987086  .00000441  00000-0  11955-3 0  9996
2 54557  98.5786 223.8993 0130614 287.1083  71.5840 14.48096313189957
Epoch: 2026-06-20T09:21Z
TLE epoch observation values (Epoch: 2026-06-20T09:21:24.842Z)
Latitude
0.00003°
Longitude
174.9406°
Altitude
706.586 km
Speed
7.517 km/s
True Right ascension
14h 55m 35s
True Declination
0° 00' 00"
Sunlit
Object was in full shadow at epoch
Visualization orbit readout
Latitude
Unknown
Longitude
Unknown
Altitude
Unknown
Speed
Unknown
Apparent Right ascension
Unknown
Apparent Declination
Unknown
Sunlit
N/A
Visualization observer readout
Local Sidereal Time
21:36:17
Azimuth
Unknown
Elevation
Unknown
Doppler factor
Unknown
Orbital elements
Apogee altitude
821.816 km
Perigee altitude
636.158 km
Semi-major axis
7,107.124 km
Eccentricity
0.01306
Inclination
98.5786°
RAAN
223.8993°
Arg. of periapsis
287.1083°
True anomaly
73.01129°
Mean anomaly
71.584°
Eccentric anomaly
72.29692°
Mean motion
3.62245 °/min
Orbital period
99.38 mins
BSTAR
0.00011955
Loading maneuver chart data...
Computing Atmospheric mass density...
Loading historical data...
Loading historical data...
Loading historical data...
Loading historical data...
Loading historical data...
Loading historical data...
Loading historical data...

Documentation

Showing up to 5 results
|